Pittsfield, IL

12:31 AM CDT on April 20, 2018 (GMT -0500)
Pittsfield Penstone Municipal

Weather History for KPPQ - December, 2011

Change the Weather History Date:

Friday, December 16, 2011

  Actual Average (KUIN) Record (KUIN)
Temperature  
Mean Temperature 30 °F -  
Max Temperature 36 °F 35 °F 65 °F (2006)
Min Temperature 25 °F 21 °F -12 °F (1932)
Degree Days  
Heating Degree Days 34    
Moisture  
Dew Point 24 °F    
Average Humidity 77    
Maximum Humidity 88    
Minimum Humidity 61    
Precipitation  
Precipitation 0.00 in - - ()
Sea Level Pressure  
Sea Level Pressure 30.39 in    
Wind  
Wind Speed 4 mph (NW)    
Max Wind Speed 8 mph    
Max Gust Speed -    
Visibility 10 miles    
Events      
Averages and records for this station are not official NWS values.
T = Trace of Precipitation, MM = Missing Value Source: NWS Daily Summary

Daily Weather History Graph

Daily Weather History Graph

Search for Another Location

Airport or City:

Astronomy

Dec. 16, 2011 Rise Set
Actual Time 7:17 AM CST 4:40 PM CST
Civil Twilight 6:46 AM CST 5:10 PM CST
Nautical Twilight 6:13 AM CST 5:44 PM CST
Astronomical Twilight 5:40 AM CST 6:17 PM CST
Moon 11:12 PM CST (12/16) 11:04 AM CST (12/16)
Length of Visible Light 10h 23m
Length of Day
9h 22m
Waning Gibbous, 64% of the Moon is Illuminated
Dec 16
Waning Gibbous
Dec 17
Last Quarter
Dec 24
New
Jan 1
First Quarter
Jan 9
Full

Hourly Weather History & Observations

Time (CST) Temp. Windchill Dew Point Humidity Pressure Visibility Wind Dir Wind Speed Gust Speed Precip Events Conditions
12:15 AM 31.1 °F 27.7 °F 24.4 °F 76% 30.34 in 10.0 mi NW 3.5 mph - N/A   Clear
12:35 AM 30.2 °F 26.7 °F 24.8 °F 80% 30.35 in 10.0 mi West 3.5 mph - N/A   Clear
12:55 AM 30.7 °F 24.9 °F 24.4 °F 77% 30.34 in 10.0 mi WNW 5.8 mph - N/A   Clear
1:15 AM 30.2 °F 23.4 °F 25.0 °F 81% 30.34 in 10.0 mi NW 6.9 mph - N/A   Clear
1:35 AM 30.2 °F 26.7 °F 24.6 °F 80% 30.34 in 10.0 mi NW 3.5 mph - N/A   Clear
1:55 AM 30.0 °F 24.1 °F 24.8 °F 81% 30.34 in 10.0 mi NW 5.8 mph - N/A   Clear
2:15 AM 29.5 °F 25.9 °F 23.9 °F 80% 30.35 in 10.0 mi WNW 3.5 mph - N/A   Clear
2:35 AM 28.2 °F 23.1 °F 23.9 °F 84% 30.34 in 10.0 mi NW 4.6 mph - N/A   Clear
2:55 AM 29.1 °F 25.4 °F 24.4 °F 83% 30.35 in 10.0 mi WNW 3.5 mph - N/A   Clear
3:15 AM 28.9 °F 25.2 °F 23.7 °F 81% 30.36 in 10.0 mi WNW 3.5 mph - N/A   Clear
3:35 AM 29.1 °F 24.1 °F 23.9 °F 81% 30.37 in 10.0 mi NW 4.6 mph - N/A   Clear
3:55 AM 28.4 °F 22.2 °F 24.8 °F 86% 30.36 in 10.0 mi NW 5.8 mph - N/A   Clear
4:15 AM 27.5 °F 21.1 °F 24.3 °F 88% 30.36 in 10.0 mi NW 5.8 mph - N/A   Clear
4:35 AM 28.0 °F 20.8 °F 24.3 °F 86% 30.36 in 10.0 mi NNW 6.9 mph - N/A   Clear
4:55 AM 28.4 °F 21.2 °F 24.1 °F 84% 30.36 in 10.0 mi NNW 6.9 mph - N/A   Clear
5:15 AM 28.4 °F 21.2 °F 23.9 °F 83% 30.38 in 10.0 mi NNW 6.9 mph - N/A   Clear
5:35 AM 28.0 °F 20.8 °F 23.9 °F 84% 30.37 in 10.0 mi NNW 6.9 mph - N/A   Clear
5:55 AM 27.5 °F 19.3 °F 23.7 °F 86% 30.38 in 10.0 mi North 8.1 mph - N/A   Clear
6:15 AM 27.5 °F 21.1 °F 23.4 °F 84% 30.38 in 10.0 mi North 5.8 mph - N/A   Clear
6:35 AM 27.0 °F 20.5 °F 23.0 °F 85% 30.38 in 10.0 mi North 5.8 mph - N/A   Clear
6:55 AM 26.6 °F 20.0 °F 22.8 °F 86% 30.38 in 10.0 mi North 5.8 mph - N/A   Clear
7:15 AM 26.4 °F 22.4 °F 22.6 °F 86% 30.39 in 10.0 mi NNW 3.5 mph - N/A   Clear
7:35 AM 26.1 °F 20.5 °F 22.5 °F 86% 30.40 in 10.0 mi NNW 4.6 mph - N/A   Clear
7:55 AM 25.9 °F - 22.6 °F 88% 30.41 in 10.0 mi Calm Calm - N/A   Clear
8:15 AM 26.2 °F - 22.6 °F 86% 30.43 in 10.0 mi Calm Calm - N/A   Clear
8:35 AM 27.3 °F - 23.2 °F 84% 30.43 in 10.0 mi Calm Calm - N/A   Clear
8:55 AM 28.4 °F - 23.0 °F 80% 30.44 in 10.0 mi Calm Calm - N/A   Clear
9:15 AM 28.6 °F 23.5 °F 23.0 °F 80% 30.45 in 10.0 mi NNW 4.6 mph - N/A   Clear
9:35 AM 29.3 °F 25.6 °F 23.2 °F 78% 30.45 in 10.0 mi NNW 3.5 mph - N/A   Clear
9:55 AM 29.5 °F - 23.0 °F 77% 30.45 in 10.0 mi Calm Calm - N/A   Clear
10:15 AM 29.8 °F - 23.7 °F 78% 30.44 in 10.0 mi Calm Calm - N/A   Clear
10:35 AM 30.2 °F 25.4 °F 23.4 °F 76% 30.44 in 10.0 mi North 4.6 mph - N/A   Clear
10:55 AM 30.6 °F - 23.0 °F 74% 30.44 in 10.0 mi Calm Calm - N/A   Clear
11:15 AM 31.8 °F - 24.1 °F 73% 30.44 in 10.0 mi Calm Calm - N/A   Clear
11:35 AM 31.6 °F - 23.5 °F 72% 30.43 in 10.0 mi Calm Calm - N/A   Clear
11:55 AM 32.0 °F 27.5 °F 24.3 °F 73% 30.43 in 10.0 mi WSW 4.6 mph - N/A   Scattered Clouds
12:15 PM 32.7 °F - 24.4 °F 72% 30.41 in 10.0 mi Calm Calm - N/A   Scattered Clouds
12:35 PM 32.9 °F - 23.9 °F 69% 30.40 in 10.0 mi Calm Calm - N/A   Clear
12:55 PM 33.8 °F 29.6 °F 23.4 °F 66% 30.39 in 10.0 mi NW 4.6 mph - N/A   Clear
1:15 PM 34.3 °F - 24.1 °F 66% 30.39 in 10.0 mi Calm Calm - N/A   Clear
1:35 PM 34.7 °F 30.6 °F 25.3 °F 69% 30.38 in 10.0 mi WNW 4.6 mph - N/A   Clear
1:55 PM 35.2 °F 30.3 °F 24.1 °F 64% 30.38 in 10.0 mi WNW 5.8 mph - N/A   Clear
2:15 PM 35.6 °F 31.7 °F 24.4 °F 64% 30.38 in 10.0 mi WNW 4.6 mph - N/A   Clear
2:35 PM 35.8 °F 30.9 °F 24.3 °F 63% 30.38 in 10.0 mi West 5.8 mph - N/A   Clear
2:55 PM 36.0 °F 32.1 °F 23.9 °F 62% 30.37 in 10.0 mi WNW 4.6 mph - N/A   Clear
3:15 PM 36.3 °F 32.5 °F 24.3 °F 62% 30.37 in 10.0 mi West 4.6 mph - N/A   Clear
3:35 PM 36.0 °F 31.1 °F 24.1 °F 62% 30.38 in 10.0 mi West 5.8 mph - N/A   Clear
3:55 PM 35.6 °F 31.7 °F 23.2 °F 61% 30.38 in 10.0 mi West 4.6 mph - N/A   Clear
4:15 PM 35.2 °F 31.2 °F 23.5 °F 62% 30.38 in 10.0 mi West 4.6 mph - N/A   Clear
4:35 PM 34.0 °F - 23.9 °F 67% 30.38 in 10.0 mi Calm Calm - N/A   Clear
4:55 PM 32.9 °F 29.8 °F 25.2 °F 73% 30.37 in 10.0 mi West 3.5 mph - N/A   Clear
5:15 PM 32.0 °F 28.7 °F 25.5 °F 77% 30.38 in 10.0 mi West 3.5 mph - N/A   Clear
5:35 PM 32.0 °F 28.7 °F 25.3 °F 76% 30.39 in 10.0 mi West 3.5 mph - N/A   Clear
5:55 PM 31.8 °F - 25.2 °F 76% 30.39 in 10.0 mi Calm Calm - N/A   Clear
6:15 PM 31.5 °F 28.1 °F 25.0 °F 77% 30.39 in 10.0 mi WNW 3.5 mph - N/A   Clear
6:35 PM 29.8 °F - 25.7 °F 85% 30.39 in 10.0 mi Calm Calm - N/A   Clear
6:55 PM 30.9 °F - 25.2 °F 79% 30.39 in 10.0 mi Calm Calm - N/A   Clear
7:15 PM 30.6 °F - 24.8 °F 79% 30.40 in 10.0 mi Calm Calm - N/A   Clear
7:35 PM 29.3 °F - 26.1 °F 88% 30.39 in 10.0 mi Calm Calm - N/A   Clear
7:55 PM 28.8 °F - 26.1 °F 90% 30.39 in 10.0 mi Calm Calm - N/A   Clear
8:15 PM 28.4 °F - 26.8 °F 94% 30.39 in 10.0 mi Calm Calm - N/A   Clear
8:35 PM 28.0 °F - 25.3 °F 90% 30.39 in 10.0 mi Calm Calm - N/A   Clear
8:55 PM 27.9 °F 24.0 °F 25.9 °F 92% 30.39 in 10.0 mi SW 3.5 mph - N/A   Clear
9:15 PM 28.0 °F - 24.8 °F 88% 30.38 in 10.0 mi Calm Calm - N/A   Clear
9:35 PM 27.3 °F - 25.7 °F 94% 30.38 in 10.0 mi Calm Calm - N/A   Clear
9:55 PM 27.3 °F - 25.3 °F 92% 30.38 in 10.0 mi Calm Calm - N/A   Clear
10:15 PM 26.4 °F - 24.3 °F 92% 30.38 in 10.0 mi Calm Calm - N/A   Scattered Clouds
10:35 PM 27.9 °F - 25.0 °F 89% 30.39 in 10.0 mi Calm Calm - N/A   Mostly Cloudy
10:55 PM 27.3 °F 23.4 °F 25.5 °F 93% 30.38 in 10.0 mi West 3.5 mph - N/A   Scattered Clouds
11:15 PM 26.6 °F - 25.3 °F 95% 30.38 in 10.0 mi Calm Calm - N/A   Scattered Clouds
11:35 PM 27.1 °F - 25.3 °F 93% 30.37 in 10.0 mi Calm Calm - N/A   Clear
11:55 PM 27.5 °F - 25.2 °F 91% 30.38 in 10.0 mi Calm Calm - N/A   Clear